This demonstration page uses our WeatherBlox Daily Observations layout. Learn more.

39.92423, -83.80882

Hourly Observations for June 28, 2020

Temp ( °F °C ) Dew Point ( °F °C ) Humidity (%) Winds ( mph kmh ) Pressure ( in mb ) Visibility ( mi km ) Precip ( " mm )
12:56 am 00:56 Clear 70 21.1 70 21.1 100 100 SW 6 9 29.86 1011 8 12.87472 0 0
1:35 am 01:35 Mostly Cloudy 72 22 72 22 100 100 WSW 8 13 29.83 1010 9 14.48406 0 0
1:56 am 01:56 Cloudy 71 21.7 71 21.7 100 100 SW 8 13 29.85 1011 10 16.0934 0 0
2:16 am 02:16 Partly Cloudy 70 21 70 21 100 100 SW 7 11 29.82 1010 9 14.48406 0 0
2:23 am 02:23 Mostly Cloudy 70 21 70 21 100 100 SW 8 13 29.82 1010 9 14.48406 0 0
2:54 am 02:54 Partly Cloudy 70 21 70 21 100 100 WSW 7 11 29.81 1009 9 14.48406 0 0
2:56 am 02:56 Partly Cloudy 70 21.1 70 21.1 100 100 WSW 7 11 29.83 1010 9 14.48406 0 0
3:56 am 03:56 Clear with Mist and Fog 69 20.6 69 20.6 100 100 SW 5 7 29.83 1010 6 9.65604 0 0
4:27 am 04:27 Mostly Clear with Mist and Fog 70 21 70 21 100 100 WSW 5 7 29.82 1010 5 8.0467 0 0
4:56 am 04:56 Clear with Mist and Fog 68 20 68 20 100 100 WSW 7 11 29.83 1010 4 6.43736 0 0
5:21 am 05:21 Partly Cloudy with Mist and Fog 68 20 68 20 100 100 WSW 3 6 29.81 1010 4 6.43736 0 0
5:31 am 05:31 Mostly Cloudy with Mist and Fog 68 20 68 20 100 100 WSW 3 6 29.81 1010 4 6.43736 0 0
5:56 am 05:56 Cloudy with Mist and Fog 68 20 68 20 100 100 Calm 29.83 1010 4 6.43736 0 0
6:56 am 06:56 Cloudy with Mist and Fog 69 20.6 69 20.6 100 100 SW 3 6 29.84 1011 4 6.43736 0 0
7:56 am 07:56 Cloudy 70 21.1 70 21.1 100 100 Calm 29.85 1011 7 11.26538 0 0
8:56 am 08:56 Cloudy with Mist and Fog 70 21.1 70 21.1 100 100 SW 9 15 29.88 1012 5 8.0467 0 0
9:56 am 09:56 Cloudy 72 22.2 71 21.7 97 97 WSW 7 11 29.88 1012 10 16.0934 0 0
10:37 am 10:37 Partly Cloudy 73 23 72 22 94 94 WSW 6 9 29.84 1011 10 16.0934 0 0
10:56 am 10:56 Mostly Cloudy 75 23.9 72 22.2 90 90 WSW 7 11 29.87 1011 10 16.0934 0 0
11:56 am 11:56 Cloudy 77 25 71 21.7 82 82 SSW 3 6 29.85 1011 10 16.0934 0 0
12:56 pm 12:56 Cloudy 77 25 71 21.7 82 82 Calm 29.85 1011 10 16.0934 0 0
1:56 pm 13:56 Mostly Cloudy 78 25.6 71 21.7 79 79 SSW 5 7 29.85 1011 10 16.0934 0 0
2:06 pm 14:06 Mostly Cloudy 77 25 72 22 83 83 WSW 7 11 29.82 1010 10 16.0934 0 0
2:25 pm 14:25 Mostly Cloudy 79 26 72 22 79 79 SW 8 13 29.82 1010 10 16.0934 0 0
2:33 pm 14:33 Mostly Cloudy 79 26 72 22 79 79 S 7 11 29.82 1010 10 16.0934 0 0
2:42 pm 14:42 Mostly Cloudy 79 26 72 22 79 79 SW 9 15 29.82 1010 10 16.0934 0 0
2:56 pm 14:56 Mostly Cloudy 78 25.6 71 21.7 79 79 SSW 7 11 29.85 1011 10 16.0934 0 0
3:42 pm 15:42 Partly Cloudy 82 28 72 22 70 70 SW 8 13 29.81 1010 10 16.0934 0 0
3:56 pm 15:56 Mostly Cloudy 81 27.2 71 21.7 72 72 W 8 13 29.84 1011 10 16.0934 0 0
4:56 pm 16:56 Partly Cloudy 83 28.3 71 21.7 67 67 SW 7 11 29.83 1010 10 16.0934 0 0
5:56 pm 17:56 Mostly Sunny 83 28.3 69 20.6 63 63 W 7 11 29.82 1010 10 16.0934 0 0
6:56 pm 18:56 Mostly Sunny 82 27.8 69 20.6 65 65 S 5 7 29.81 1010 10 16.0934 0 0
7:56 pm 19:56 Sunny 81 27.2 69 20.6 67 67 SW 6 9 29.83 1010 10 16.0934 0 0
8:56 pm 20:56 Sunny 78 25.6 69 20.6 74 74 Calm 29.84 1011 10 16.0934 0 0
9:56 pm 21:56 Clear 74 23.3 71 21.7 91 91 Calm 29.85 1011 10 16.0934 0 0
10:56 pm 22:56 Clear 73 22.8 70 21.1 90 90 SW 5 7 29.87 1012 10 16.0934 0 0
11:56 pm 23:56 Mostly Cloudy 73 22.8 72 22.2 96 96 SW 7 11 29.89 1012 10 16.0934 0 0

Powered by AerisWeather